timestamp,wind_dir_avg,wind_spd_avg,wind_spd_max_dir,wind_spd_gust,battery_voltage,lat,long
2023-10-08 00:04:01+00:00,244.0,2.38,245.0,2.68,12.41,47.59359,-54.27349
2023-10-08 00:14:01+00:00,234.0,1.98,233.0,2.38,12.41,47.59359,-54.27349
2023-10-08 00:24:01+00:00,246.0,1.83,244.0,2.09,12.41,47.59359,-54.27349
2023-10-08 00:34:01+00:00,251.0,1.61,252.0,1.87,12.41,47.59359,-54.27349
2023-10-08 00:44:01+00:00,257.0,2.52,257.0,2.72,12.41,47.59359,-54.27349
2023-10-08 00:54:01+00:00,263.0,2.73,267.0,3.05,12.41,47.59359,-54.27349
2023-10-08 01:04:01+00:00,253.0,2.82,255.0,3.05,12.41,47.59359,-54.27349
2023-10-08 01:14:01+00:00,247.0,2.53,252.0,2.72,12.33,47.59359,-54.27349
2023-10-08 01:24:01+00:00,254.0,2.31,255.0,2.49,12.33,47.59359,-54.27349
2023-10-08 01:34:01+00:00,255.0,2.09,254.0,2.33,12.33,47.59359,-54.27349
2023-10-08 01:44:01+00:00,242.0,2.11,246.0,2.33,12.33,47.59359,-54.27349
2023-10-08 01:54:01+00:00,242.0,1.68,243.0,1.83,12.33,47.59359,-54.27349
2023-10-08 02:04:01+00:00,233.0,1.19,237.0,1.3,12.33,47.59359,-54.27349
2023-10-08 02:14:01+00:00,228.0,0.83,235.0,0.99,12.33,47.59359,-54.27349
2023-10-08 02:24:01+00:00,200.0,1.07,201.0,1.18,12.33,47.59359,-54.27349
2023-10-08 02:34:01+00:00,216.0,1.2,215.0,1.33,12.33,47.59359,-54.27349
2023-10-08 02:44:01+00:00,199.0,1.2,195.0,1.38,12.33,47.59359,-54.27349
2023-10-08 02:54:01+00:00,203.0,1.21,205.0,1.38,12.33,47.59359,-54.27349
2023-10-08 03:04:01+00:00,209.0,1.72,207.0,1.82,12.33,47.59359,-54.27349
2023-10-08 03:14:01+00:00,213.0,1.84,214.0,1.95,12.25,47.59359,-54.27349
2023-10-08 03:24:01+00:00,206.0,1.51,208.0,1.62,12.25,47.59359,-54.27349
2023-10-08 03:34:01+00:00,185.0,1.15,186.0,1.23,12.25,47.59359,-54.27349
2023-10-08 03:44:01+00:00,174.0,1.08,171.0,1.24,12.25,47.59359,-54.27349
2023-10-08 03:54:01+00:00,189.0,1.12,191.0,1.2,12.25,47.59359,-54.27349
2023-10-08 04:04:01+00:00,221.0,1.25,223.0,1.35,12.25,47.59359,-54.27349
2023-10-08 04:14:00+00:00,212.0,1.19,214.0,1.24,12.33,47.59359,-54.27349
2023-10-08 04:24:00+00:00,206.0,1.15,206.0,1.23,12.33,47.59359,-54.27349
2023-10-08 04:34:00+00:00,195.0,1.14,192.0,1.23,12.33,47.59359,-54.27349
2023-10-08 04:44:00+00:00,189.0,0.81,193.0,0.89,12.33,47.59359,-54.27349
2023-10-08 04:54:00+00:00,187.0,1.42,193.0,1.74,12.33,47.59359,-54.27349
2023-10-08 05:04:00+00:00,213.0,2.06,214.0,2.15,12.33,47.59359,-54.27349
2023-10-08 05:14:00+00:00,205.0,0.99,208.0,1.13,12.33,47.59359,-54.27349
2023-10-08 05:24:00+00:00,194.0,0.88,193.0,0.97,12.33,47.59359,-54.27349
2023-10-08 05:34:00+00:00,178.0,1.03,172.0,1.24,12.33,47.59359,-54.27349
2023-10-08 05:44:00+00:00,178.0,1.13,179.0,1.39,12.33,47.59359,-54.27349
2023-10-08 05:54:00+00:00,159.0,0.99,157.0,1.1,12.33,47.59359,-54.27349
2023-10-08 06:04:00+00:00,186.0,1.17,187.0,1.38,12.33,47.59359,-54.27349
2023-10-08 06:14:01+00:00,217.0,1.12,230.0,1.46,12.25,47.59359,-54.27349
2023-10-08 06:24:01+00:00,230.0,2.17,221.0,2.69,12.25,47.59359,-54.27349
2023-10-08 06:34:01+00:00,230.0,2.3,230.0,2.71,12.25,47.59359,-54.27349
2023-10-08 06:44:01+00:00,214.0,1.72,214.0,2.12,12.25,47.59359,-54.27349
2023-10-08 06:54:01+00:00,233.0,2.3,233.0,2.64,12.25,47.59359,-54.27349
2023-10-08 07:04:01+00:00,231.0,2.49,225.0,3.03,12.25,47.59359,-54.27349
2023-10-08 07:14:01+00:00,238.0,1.97,244.0,2.31,12.25,47.59359,-54.27349
2023-10-08 07:24:01+00:00,233.0,1.93,232.0,2.26,12.25,47.59359,-54.27349
2023-10-08 07:34:01+00:00,242.0,1.68,233.0,1.91,12.25,47.59359,-54.27349
2023-10-08 07:44:01+00:00,218.0,1.85,216.0,2.22,12.25,47.59359,-54.27349
2023-10-08 07:54:01+00:00,196.0,1.46,198.0,1.79,12.25,47.59359,-54.27349
2023-10-08 08:04:01+00:00,219.0,1.74,220.0,1.9,12.25,47.59359,-54.27349
2023-10-08 08:14:00+00:00,221.0,0.5,233.0,0.63,12.17,47.59359,-54.27349
2023-10-08 08:24:00+00:00,225.0,0.32,225.0,0.44,12.17,47.59359,-54.27349
2023-10-08 08:34:00+00:00,19.0,0.45,30.0,0.52,12.17,47.59359,-54.27349
2023-10-08 08:44:00+00:00,47.0,0.68,51.0,0.75,12.17,47.59359,-54.27349
2023-10-08 08:54:00+00:00,55.0,0.72,59.0,0.82,12.17,47.59359,-54.27349
2023-10-08 09:04:00+00:00,144.0,0.34,148.0,0.43,12.17,47.59359,-54.27349
2023-10-08 09:14:01+00:00,152.0,0.19,152.0,0.27,12.17,47.59359,-54.27349
2023-10-08 09:24:01+00:00,88.0,0.49,86.0,0.57,12.17,47.59359,-54.27349
2023-10-08 09:34:01+00:00,67.0,0.56,68.0,0.68,12.17,47.59359,-54.27349
2023-10-08 09:44:01+00:00,66.0,0.96,70.0,1.02,12.17,47.59359,-54.27349
2023-10-08 09:54:01+00:00,59.0,1.17,62.0,1.41,12.17,47.59359,-54.27349
2023-10-08 10:04:01+00:00,57.0,0.96,53.0,1.12,12.17,47.59359,-54.27349
2023-10-08 10:14:01+00:00,72.0,1.66,68.0,2.11,12.09,47.59359,-54.27349
2023-10-08 10:24:01+00:00,85.0,1.39,108.0,2.52,12.09,47.59359,-54.27349
2023-10-08 10:34:01+00:00,124.0,1.54,121.0,2.08,12.09,47.59359,-54.27349
2023-10-08 10:44:01+00:00,174.0,2.22,176.0,2.4,12.09,47.59359,-54.27349
2023-10-08 10:54:01+00:00,184.0,2.25,182.0,2.48,12.09,47.59359,-54.27349
2023-10-08 11:04:01+00:00,183.0,2.78,186.0,2.99,12.09,47.59359,-54.27349
2023-10-08 11:14:01+00:00,180.0,3.24,181.0,3.69,12.17,47.59359,-54.27349
2023-10-08 11:24:01+00:00,174.0,4.14,176.0,4.54,12.17,47.59359,-54.27349
2023-10-08 11:34:01+00:00,180.0,3.93,181.0,4.13,12.17,47.59359,-54.27349
2023-10-08 11:44:01+00:00,180.0,4.17,180.0,4.53,12.17,47.59359,-54.27349
2023-10-08 11:54:01+00:00,166.0,4.76,169.0,5.29,12.17,47.59359,-54.27349
2023-10-08 12:04:01+00:00,162.0,4.28,165.0,4.96,12.17,47.59359,-54.27349
2023-10-08 12:14:01+00:00,164.0,4.75,170.0,5.27,12.57,47.59359,-54.27349
2023-10-08 12:24:01+00:00,171.0,6.11,170.0,6.61,12.57,47.59359,-54.27349
2023-10-08 12:34:01+00:00,176.0,5.85,176.0,6.57,12.57,47.59359,-54.27349
2023-10-08 12:44:01+00:00,168.0,5.19,167.0,5.71,12.57,47.59359,-54.27349
2023-10-08 12:54:01+00:00,163.0,5.29,161.0,6.02,12.57,47.59359,-54.27349
2023-10-08 13:04:01+00:00,162.0,4.83,162.0,5.47,12.57,47.59359,-54.27349
2023-10-08 13:14:00+00:00,157.0,5.41,160.0,6.34,13.29,47.59359,-54.27349
2023-10-08 13:24:00+00:00,157.0,5.53,160.0,6.13,13.29,47.59359,-54.27349
2023-10-08 13:34:00+00:00,157.0,6.16,157.0,6.69,13.29,47.59359,-54.27349
2023-10-08 13:44:00+00:00,160.0,5.38,160.0,5.8,13.29,47.59359,-54.27349
2023-10-08 13:54:00+00:00,155.0,4.28,154.0,4.87,13.29,47.59359,-54.27349
2023-10-08 14:04:00+00:00,142.0,4.97,145.0,5.7,13.29,47.59359,-54.27349
2023-10-08 14:14:00+00:00,134.0,4.09,140.0,4.69,13.44,47.59359,-54.27349
2023-10-08 14:24:00+00:00,122.0,4.34,130.0,4.73,13.44,47.59359,-54.27349
2023-10-08 14:34:00+00:00,136.0,5.53,138.0,6.38,13.44,47.59359,-54.27349
2023-10-08 14:44:00+00:00,138.0,5.64,136.0,6.07,13.44,47.59359,-54.27349
2023-10-08 14:54:00+00:00,128.0,3.4,131.0,3.93,13.44,47.59359,-54.27349
2023-10-08 15:04:00+00:00,138.0,4.29,137.0,4.74,13.44,47.59359,-54.27349
2023-10-08 15:14:00+00:00,134.0,5.08,137.0,5.95,13.37,47.59359,-54.27349
2023-10-08 15:24:00+00:00,126.0,4.6,126.0,5.18,13.37,47.59359,-54.27349
2023-10-08 15:34:00+00:00,125.0,3.88,138.0,4.62,13.37,47.59359,-54.27349
2023-10-08 15:44:00+00:00,120.0,4.26,121.0,5.21,13.37,47.59359,-54.27349
2023-10-08 15:54:00+00:00,126.0,3.77,130.0,4.37,13.37,47.59359,-54.27349
2023-10-08 16:04:00+00:00,125.0,2.79,135.0,3.35,13.37,47.59359,-54.27349
2023-10-08 16:14:00+00:00,117.0,2.47,128.0,3.23,14.32,47.59359,-54.27349
2023-10-08 16:24:00+00:00,123.0,1.68,130.0,1.92,14.32,47.59359,-54.27349
2023-10-08 16:34:00+00:00,135.0,1.03,130.0,1.42,14.32,47.59359,-54.27349
2023-10-08 16:44:00+00:00,51.0,1.82,43.0,2.32,14.32,47.59359,-54.27349
2023-10-08 16:54:00+00:00,29.0,2.77,26.0,3.15,14.32,47.59359,-54.27349
2023-10-08 17:04:00+00:00,48.0,4.37,46.0,4.69,14.32,47.59359,-54.27349
2023-10-08 17:14:00+00:00,43.0,3.53,37.0,4.08,14.4,47.59359,-54.27349
2023-10-08 17:24:00+00:00,36.0,6.06,36.0,6.44,14.4,47.59359,-54.27349
2023-10-08 17:34:00+00:00,44.0,6.09,45.0,6.61,14.4,47.59359,-54.27349
2023-10-08 17:44:00+00:00,40.0,5.74,43.0,6.24,14.4,47.59359,-54.27349
2023-10-08 17:54:00+00:00,40.0,5.44,42.0,6.09,14.4,47.59359,-54.27349
2023-10-08 18:04:00+00:00,36.0,4.89,36.0,5.48,14.4,47.59359,-54.27349
2023-10-08 18:14:01+00:00,31.0,5.41,30.0,5.64,14.4,47.59359,-54.27349
2023-10-08 18:24:01+00:00,22.0,4.42,28.0,4.92,14.4,47.59359,-54.27349
2023-10-08 18:34:01+00:00,9.0,3.62,0.0,4.32,14.4,47.59359,-54.27349
2023-10-08 18:44:01+00:00,14.0,4.52,18.0,4.99,14.4,47.59359,-54.27349
2023-10-08 18:54:01+00:00,83.0,3.53,84.0,5.75,14.4,47.59359,-54.27349
2023-10-08 19:04:01+00:00,76.0,3.63,89.0,4.95,14.4,47.59359,-54.27349
2023-10-08 19:14:00+00:00,74.0,3.2,75.0,4.66,13.76,47.59359,-54.27349
2023-10-08 19:24:00+00:00,67.0,5.3,69.0,5.8,13.76,47.59359,-54.27349
2023-10-08 19:34:00+00:00,69.0,4.73,67.0,5.16,13.76,47.59359,-54.27349
2023-10-08 19:44:00+00:00,66.0,3.73,70.0,4.14,13.76,47.59359,-54.27349
2023-10-08 19:54:00+00:00,71.0,3.9,77.0,4.31,13.76,47.59359,-54.27349
2023-10-08 20:04:00+00:00,71.0,2.39,71.0,3.35,13.76,47.59359,-54.27349
2023-10-08 20:14:00+00:00,69.0,3.31,61.0,4.02,13.6,47.59359,-54.27349
2023-10-08 20:24:00+00:00,80.0,3.96,90.0,5.75,13.6,47.59359,-54.27349
2023-10-08 20:34:00+00:00,75.0,3.76,81.0,5.83,13.6,47.59359,-54.27349
2023-10-08 20:44:00+00:00,82.0,3.78,90.0,5.63,13.6,47.59359,-54.27349
2023-10-08 20:54:00+00:00,82.0,4.77,62.0,7.33,13.6,47.59359,-54.27349
2023-10-08 21:04:00+00:00,82.0,4.15,77.0,5.48,13.6,47.59359,-54.27349
2023-10-08 21:14:00+00:00,80.0,4.36,82.0,6.26,12.89,47.59359,-54.27349
2023-10-08 21:24:00+00:00,102.0,4.51,114.0,7.3,12.89,47.59359,-54.27349
2023-10-08 21:34:00+00:00,93.0,3.58,105.0,5.55,12.89,47.59359,-54.27349
2023-10-08 21:44:00+00:00,88.0,3.44,87.0,6.02,12.89,47.59359,-54.27349
2023-10-08 21:54:00+00:00,94.0,4.12,90.0,6.1,12.89,47.59359,-54.27349
2023-10-08 22:04:00+00:00,75.0,2.7,59.0,4.94,12.89,47.59359,-54.27349
2023-10-08 22:14:00+00:00,102.0,3.55,105.0,5.59,12.49,47.59359,-54.27349
2023-10-08 22:24:00+00:00,130.0,6.92,124.0,8.98,12.49,47.59359,-54.27349
2023-10-08 22:34:00+00:00,132.0,4.84,130.0,5.54,12.49,47.59359,-54.27349
2023-10-08 22:44:00+00:00,136.0,5.45,143.0,6.3,12.49,47.59359,-54.27349
2023-10-08 22:54:00+00:00,126.0,6.67,119.0,8.12,12.49,47.59359,-54.27349
2023-10-08 23:04:00+00:00,121.0,7.32,120.0,9.11,12.49,47.59359,-54.27349
2023-10-08 23:14:01+00:00,118.0,5.49,122.0,8.52,12.41,47.59359,-54.27349
2023-10-08 23:24:01+00:00,123.0,3.67,141.0,5.69,12.41,47.59359,-54.27349
2023-10-08 23:34:01+00:00,102.0,3.15,130.0,5.13,12.41,47.59359,-54.27349
2023-10-08 23:44:01+00:00,94.0,3.98,87.0,6.89,12.41,47.59359,-54.27349
2023-10-08 23:54:01+00:00,83.0,2.98,40.0,5.38,12.41,47.59359,-54.27349
